Year,Month,Day,Hour,Minute,Value (Times are PST for temperature in C)
2013,10,29,00,00,2.40
2013,10,29,00,01,2.40
2013,10,29,00,02,2.40
2013,10,29,00,03,2.40
2013,10,29,00,04,2.40
2013,10,29,00,05,2.40
2013,10,29,00,06,2.40
2013,10,29,00,07,2.40
2013,10,29,00,08,2.40
2013,10,29,00,09,2.40
2013,10,29,00,10,2.30
2013,10,29,00,11,2.30
2013,10,29,00,12,2.30
2013,10,29,00,13,2.30
2013,10,29,00,14,2.30
2013,10,29,00,15,2.40
2013,10,29,00,16,2.30
2013,10,29,00,17,2.40
2013,10,29,00,18,2.40
2013,10,29,00,19,2.40
2013,10,29,00,20,2.40
2013,10,29,00,21,2.40
2013,10,29,00,22,2.40
2013,10,29,00,23,2.40
2013,10,29,00,24,2.40
2013,10,29,00,25,2.40
2013,10,29,00,26,2.40
2013,10,29,00,27,2.30
2013,10,29,00,28,2.30
2013,10,29,00,29,2.30
2013,10,29,00,30,2.30
2013,10,29,00,31,2.30
2013,10,29,00,32,2.20
2013,10,29,00,33,2.20
2013,10,29,00,34,2.20
2013,10,29,00,35,2.10
2013,10,29,00,36,2.10
2013,10,29,00,37,2.10
2013,10,29,00,38,2.10
2013,10,29,00,39,2.00
2013,10,29,00,40,2.00
2013,10,29,00,41,2.00
2013,10,29,00,42,2.00
2013,10,29,00,43,1.90
2013,10,29,00,44,1.90
2013,10,29,00,45,1.90
2013,10,29,00,46,1.90
2013,10,29,00,47,2.00
2013,10,29,00,48,2.00
2013,10,29,00,49,2.00
2013,10,29,00,50,2.00
2013,10,29,00,51,2.00
2013,10,29,00,52,2.00
2013,10,29,00,53,2.00
2013,10,29,00,54,2.00
2013,10,29,00,55,2.00
2013,10,29,00,56,1.90
2013,10,29,00,57,1.90
2013,10,29,00,58,1.90
2013,10,29,00,59,1.90
2013,10,29,01,00,1.90
2013,10,29,01,01,1.80
2013,10,29,01,02,1.80
2013,10,29,01,03,1.80
2013,10,29,01,04,1.80
2013,10,29,01,05,1.70
2013,10,29,01,06,1.70
2013,10,29,01,07,1.70
2013,10,29,01,08,1.70
2013,10,29,01,09,1.60
2013,10,29,01,10,1.60
2013,10,29,01,11,1.60
2013,10,29,01,12,1.60
2013,10,29,01,13,1.60
2013,10,29,01,14,1.60
2013,10,29,01,15,1.50
2013,10,29,01,16,1.50
2013,10,29,01,17,1.50
2013,10,29,01,18,1.40
2013,10,29,01,19,1.40
2013,10,29,01,20,1.40
2013,10,29,01,21,1.40
2013,10,29,01,22,1.40
2013,10,29,01,23,1.40
2013,10,29,01,24,1.30
2013,10,29,01,25,1.30
2013,10,29,01,26,1.30
2013,10,29,01,27,1.30
2013,10,29,01,28,1.30
2013,10,29,01,29,1.30
2013,10,29,01,30,1.30
2013,10,29,01,31,1.20
2013,10,29,01,32,1.20
2013,10,29,01,33,1.20
2013,10,29,01,34,1.20
2013,10,29,01,35,1.20
2013,10,29,01,36,1.20
2013,10,29,01,37,1.20
2013,10,29,01,38,1.20
2013,10,29,01,39,1.20
2013,10,29,01,40,1.20
2013,10,29,01,41,1.20
2013,10,29,01,42,1.20
2013,10,29,01,43,1.20
2013,10,29,01,44,1.20
2013,10,29,01,45,1.20
2013,10,29,01,46,1.20
2013,10,29,01,47,1.10
2013,10,29,01,48,1.10
2013,10,29,01,49,1.10
2013,10,29,01,50,1.10
2013,10,29,01,51,1.10
2013,10,29,01,52,1.10
2013,10,29,01,53,1.10
2013,10,29,01,54,1.10
2013,10,29,01,55,1.10
2013,10,29,01,56,1.10
2013,10,29,01,57,1.00
2013,10,29,01,58,1.00
2013,10,29,01,59,1.00
2013,10,29,02,00,0.90
2013,10,29,02,01,1.00
2013,10,29,02,02,1.00
2013,10,29,02,03,0.90
2013,10,29,02,04,1.00
2013,10,29,02,05,1.00
2013,10,29,02,06,1.00
2013,10,29,02,07,1.00
2013,10,29,02,08,1.00
2013,10,29,02,09,1.00
2013,10,29,02,10,0.90
2013,10,29,02,11,0.90
2013,10,29,02,12,0.90
2013,10,29,02,13,0.90
2013,10,29,02,14,0.90
2013,10,29,02,15,0.90
2013,10,29,02,16,0.90
2013,10,29,02,17,0.80
2013,10,29,02,18,0.80
2013,10,29,02,19,0.80
2013,10,29,02,20,0.80
2013,10,29,02,21,0.80
2013,10,29,02,22,0.80
2013,10,29,02,23,0.70
2013,10,29,02,24,0.70
2013,10,29,02,25,0.70
2013,10,29,02,26,0.70
2013,10,29,02,27,0.70
2013,10,29,02,28,0.70
2013,10,29,02,29,0.70
2013,10,29,02,30,0.70
2013,10,29,02,31,0.70
2013,10,29,02,32,0.70
2013,10,29,02,33,0.70
2013,10,29,02,34,0.70
2013,10,29,02,35,0.70
2013,10,29,02,36,0.60
2013,10,29,02,37,0.60
2013,10,29,02,38,0.60
2013,10,29,02,39,0.60
2013,10,29,02,40,0.60
2013,10,29,02,41,0.60
2013,10,29,02,42,0.60
2013,10,29,02,43,0.60
2013,10,29,02,44,0.60
2013,10,29,02,45,0.60
2013,10,29,02,46,0.50
2013,10,29,02,47,0.50
2013,10,29,02,48,0.60
2013,10,29,02,49,0.50
2013,10,29,02,50,0.50
2013,10,29,02,51,0.50
2013,10,29,02,52,0.50
2013,10,29,02,53,0.50
2013,10,29,02,54,0.50
2013,10,29,02,55,0.60
2013,10,29,02,56,0.50
2013,10,29,02,57,0.50
2013,10,29,02,58,0.60
2013,10,29,02,59,0.60
2013,10,29,03,00,0.60
2013,10,29,03,01,0.60
2013,10,29,03,02,0.60
2013,10,29,03,03,0.60
2013,10,29,03,04,0.60
2013,10,29,03,05,0.60
2013,10,29,03,06,0.60
2013,10,29,03,07,0.50
2013,10,29,03,08,0.50
2013,10,29,03,09,0.40
2013,10,29,03,10,0.40
2013,10,29,03,11,0.40
2013,10,29,03,12,0.40
2013,10,29,03,13,0.40
2013,10,29,03,14,0.30
2013,10,29,03,15,0.30
2013,10,29,03,16,0.30
2013,10,29,03,17,0.30
2013,10,29,03,18,0.30
2013,10,29,03,19,0.30
2013,10,29,03,20,0.40
2013,10,29,03,21,0.40
2013,10,29,03,22,0.40
2013,10,29,03,23,0.40
2013,10,29,03,24,0.40
2013,10,29,03,25,0.40
2013,10,29,03,26,0.40
2013,10,29,03,27,0.40
2013,10,29,03,28,0.40
2013,10,29,03,29,0.40
2013,10,29,03,30,0.40
2013,10,29,03,31,0.40
2013,10,29,03,32,0.40
2013,10,29,03,33,0.40
2013,10,29,03,34,0.30
2013,10,29,03,35,0.30
2013,10,29,03,36,0.30
2013,10,29,03,37,0.30
2013,10,29,03,38,0.30
2013,10,29,03,39,0.30
2013,10,29,03,40,0.30
2013,10,29,03,41,0.30
2013,10,29,03,42,0.30
2013,10,29,03,43,0.30
2013,10,29,03,44,0.30
2013,10,29,03,45,0.30
2013,10,29,03,46,0.30
2013,10,29,03,47,0.30
2013,10,29,03,48,0.30
2013,10,29,03,49,0.20
2013,10,29,03,50,0.20
2013,10,29,03,51,0.20
2013,10,29,03,52,0.20
2013,10,29,03,53,0.20
2013,10,29,03,54,0.20
2013,10,29,03,55,0.20
2013,10,29,03,56,0.20
2013,10,29,03,57,0.20
2013,10,29,03,58,0.20
2013,10,29,03,59,0.20
2013,10,29,04,00,0.20
2013,10,29,04,01,0.20
2013,10,29,04,02,0.10
2013,10,29,04,03,0.10
2013,10,29,04,04,0.10
2013,10,29,04,05,0.10
2013,10,29,04,06,0.10
2013,10,29,04,07,0.10
2013,10,29,04,08,0.10
2013,10,29,04,09,0.10
2013,10,29,04,10,0.10
2013,10,29,04,11,0.10
2013,10,29,04,12,0.10
2013,10,29,04,13,0.10
2013,10,29,04,14,0.10
2013,10,29,04,15,0.00
2013,10,29,04,16,0.00
2013,10,29,04,17,0.00
2013,10,29,04,18,-0.10
2013,10,29,04,19,-0.10
2013,10,29,04,20,-0.10
2013,10,29,04,21,-0.10
2013,10,29,04,22,-0.10
2013,10,29,04,23,-0.10
2013,10,29,04,24,-0.10
2013,10,29,04,25,-0.10
2013,10,29,04,26,-0.10
2013,10,29,04,27,-0.20
2013,10,29,04,28,-0.20
2013,10,29,04,29,-0.20
2013,10,29,04,30,-0.20
2013,10,29,04,31,-0.20
2013,10,29,04,32,-0.20
2013,10,29,04,33,-0.20
2013,10,29,04,34,-0.20
2013,10,29,04,35,-0.20
2013,10,29,04,36,-0.20
2013,10,29,04,37,-0.20
2013,10,29,04,38,-0.10
2013,10,29,04,39,-0.10
2013,10,29,04,40,-0.10
2013,10,29,04,41,-0.20
2013,10,29,04,42,-0.10
2013,10,29,04,43,-0.10
2013,10,29,04,44,-0.10
2013,10,29,04,45,-0.10
2013,10,29,04,46,-0.10
2013,10,29,04,47,-0.20
2013,10,29,04,48,-0.20
2013,10,29,04,49,-0.20
2013,10,29,04,50,-0.20
2013,10,29,04,51,-0.20
2013,10,29,04,52,-0.20
2013,10,29,04,53,-0.30
2013,10,29,04,54,-0.30
2013,10,29,04,55,-0.30
2013,10,29,04,56,-0.30
2013,10,29,04,57,-0.30
2013,10,29,04,58,-0.30
2013,10,29,04,59,-0.30
2013,10,29,05,00,-0.30
2013,10,29,05,01,-0.30
2013,10,29,05,02,-0.30
2013,10,29,05,03,-0.40
2013,10,29,05,04,-0.40
2013,10,29,05,05,-0.40
2013,10,29,05,06,-0.40
2013,10,29,05,07,-0.40
2013,10,29,05,08,-0.40
2013,10,29,05,09,-0.40
2013,10,29,05,10,-0.40
2013,10,29,05,11,-0.40
2013,10,29,05,12,-0.40
2013,10,29,05,13,-0.40
2013,10,29,05,14,-0.40
2013,10,29,05,15,-0.50
2013,10,29,05,16,-0.50
2013,10,29,05,17,-0.50
2013,10,29,05,18,-0.50
2013,10,29,05,19,-0.50
2013,10,29,05,20,-0.60
2013,10,29,05,21,-0.60
2013,10,29,05,22,-0.60
2013,10,29,05,23,-0.60
2013,10,29,05,24,-0.60
2013,10,29,05,25,-0.60
2013,10,29,05,26,-0.60
2013,10,29,05,27,-0.60
2013,10,29,05,28,-0.70
2013,10,29,05,29,-0.70
2013,10,29,05,30,-0.70
2013,10,29,05,31,-0.70
2013,10,29,05,32,-0.70
2013,10,29,05,33,-0.70
2013,10,29,05,34,-0.70
2013,10,29,05,35,-0.70
2013,10,29,05,36,-0.70
2013,10,29,05,37,-0.70
2013,10,29,05,38,-0.80
2013,10,29,05,39,-0.80
2013,10,29,05,40,-0.80
2013,10,29,05,41,-0.80
2013,10,29,05,42,-0.80
2013,10,29,05,43,-0.80
2013,10,29,05,44,-0.80
2013,10,29,05,45,-0.80
2013,10,29,05,46,-0.80
2013,10,29,05,47,-0.80
2013,10,29,05,48,-0.80
2013,10,29,05,49,-0.80
2013,10,29,05,50,-0.80
2013,10,29,05,51,-0.80
2013,10,29,05,52,-0.80
2013,10,29,05,53,-0.80
2013,10,29,05,54,-0.80
2013,10,29,05,55,-0.80
2013,10,29,05,56,-0.80
2013,10,29,05,57,-0.80
2013,10,29,05,58,-0.80
2013,10,29,05,59,-0.80
2013,10,29,06,00,-0.80
2013,10,29,06,01,-0.80
2013,10,29,06,02,-0.80
2013,10,29,06,03,-0.80
2013,10,29,06,04,-0.90
2013,10,29,06,05,-0.90
2013,10,29,06,06,-0.90
2013,10,29,06,07,-0.90
2013,10,29,06,08,-0.90
2013,10,29,06,09,-0.90
2013,10,29,06,10,-0.90
2013,10,29,06,11,-0.90
2013,10,29,06,12,-0.90
2013,10,29,06,13,-0.90
2013,10,29,06,14,-0.90
2013,10,29,06,15,-0.90
2013,10,29,06,16,-0.90
2013,10,29,06,17,-0.90
2013,10,29,06,18,-0.90
2013,10,29,06,19,-0.90
2013,10,29,06,20,-0.90
2013,10,29,06,21,-0.90
2013,10,29,06,22,-0.90
2013,10,29,06,23,-0.90
2013,10,29,06,24,-0.90
2013,10,29,06,25,-0.90
2013,10,29,06,26,-0.90
2013,10,29,06,27,-0.90
2013,10,29,06,28,-0.90
2013,10,29,06,29,-0.90
2013,10,29,06,30,-0.90
2013,10,29,06,31,-0.90
2013,10,29,06,32,-0.90
2013,10,29,06,33,-0.90
2013,10,29,06,34,-0.90
2013,10,29,06,35,-0.90
2013,10,29,06,36,-0.90
2013,10,29,06,37,-0.90
2013,10,29,06,38,-0.90
2013,10,29,06,39,-0.90
2013,10,29,06,40,-0.90
2013,10,29,06,41,-0.90
2013,10,29,06,42,-0.90
2013,10,29,06,43,-0.90
2013,10,29,06,44,-0.90
2013,10,29,06,45,-1.00
2013,10,29,06,46,-0.90
2013,10,29,06,47,-1.00
2013,10,29,06,48,-1.00
2013,10,29,06,49,-1.00
2013,10,29,06,50,-1.00
2013,10,29,06,51,-1.00
2013,10,29,06,52,-1.00
2013,10,29,06,53,-1.10
2013,10,29,06,54,-1.00
2013,10,29,06,55,-1.00
2013,10,29,06,56,-1.00
2013,10,29,06,57,-1.00
2013,10,29,06,58,-1.00
2013,10,29,06,59,-0.90
2013,10,29,07,00,-0.90
2013,10,29,07,01,-0.90
2013,10,29,07,02,-0.90
2013,10,29,07,03,-0.90
2013,10,29,07,04,-0.90
2013,10,29,07,05,-0.90
2013,10,29,07,06,-0.90
2013,10,29,07,07,-0.90
2013,10,29,07,08,-0.90
2013,10,29,07,09,-0.90
2013,10,29,07,10,-0.90
2013,10,29,07,11,-0.90
2013,10,29,07,12,-0.90
2013,10,29,07,13,-0.90
2013,10,29,07,14,-0.90
2013,10,29,07,15,-0.90
2013,10,29,07,16,-0.90
2013,10,29,07,17,-0.90
2013,10,29,07,18,-0.90
2013,10,29,07,19,-0.90
2013,10,29,07,20,-1.00
2013,10,29,07,21,-1.00
2013,10,29,07,22,-1.00
2013,10,29,07,23,-1.00
2013,10,29,07,24,-1.00
2013,10,29,07,25,-1.10
2013,10,29,07,26,-1.10
2013,10,29,07,27,-1.10
2013,10,29,07,28,-1.10
2013,10,29,07,29,-1.10
2013,10,29,07,30,-1.10
2013,10,29,07,31,-1.10
2013,10,29,07,32,-1.20
2013,10,29,07,33,-1.20
2013,10,29,07,34,-1.20
2013,10,29,07,35,-1.20
2013,10,29,07,36,-1.20
2013,10,29,07,37,-1.20
2013,10,29,07,38,-1.20
2013,10,29,07,39,-1.20
2013,10,29,07,40,-1.20
2013,10,29,07,41,-1.20
2013,10,29,07,42,-1.20
2013,10,29,07,43,-1.20
2013,10,29,07,44,-1.20
2013,10,29,07,45,-1.20
2013,10,29,07,46,-1.20
2013,10,29,07,47,-1.20
2013,10,29,07,48,-1.20
2013,10,29,07,49,-1.20
2013,10,29,07,50,-1.20
2013,10,29,07,51,-1.20
2013,10,29,07,52,-1.20
2013,10,29,07,53,-1.20
2013,10,29,07,54,-1.20
2013,10,29,07,55,-1.20
2013,10,29,07,56,-1.20
2013,10,29,07,57,-1.20
2013,10,29,07,58,-1.20
2013,10,29,07,59,-1.20
2013,10,29,08,00,-1.20
2013,10,29,08,01,-1.20
2013,10,29,08,02,-1.20
2013,10,29,08,03,-1.20
2013,10,29,08,04,-1.20
2013,10,29,08,05,-1.20
2013,10,29,08,06,-1.20
2013,10,29,08,07,-1.20
2013,10,29,08,08,-1.20
2013,10,29,08,09,-1.20
2013,10,29,08,10,-1.20
2013,10,29,08,11,-1.20
2013,10,29,08,12,-1.20
2013,10,29,08,13,-1.20
2013,10,29,08,14,-1.20
2013,10,29,08,15,-1.10
2013,10,29,08,16,-1.10
2013,10,29,08,17,-1.10
2013,10,29,08,18,-1.10
2013,10,29,08,19,-1.10
2013,10,29,08,20,-1.10
2013,10,29,08,21,-1.10
2013,10,29,08,22,-1.10
2013,10,29,08,23,-1.10
2013,10,29,08,24,-1.10
2013,10,29,08,25,-1.10
2013,10,29,08,26,-1.10
2013,10,29,08,27,-1.10
2013,10,29,08,28,-1.10
2013,10,29,08,29,-1.10
2013,10,29,08,30,-1.10
2013,10,29,08,31,-1.10
2013,10,29,08,32,-1.10
2013,10,29,08,33,-1.10
2013,10,29,08,34,-1.10
2013,10,29,08,35,-1.10
2013,10,29,08,36,-1.10
2013,10,29,08,37,-1.10
2013,10,29,08,38,-1.10
2013,10,29,08,39,-1.10
2013,10,29,08,40,-1.10
2013,10,29,08,41,-1.00
2013,10,29,08,42,-1.00
2013,10,29,08,43,-1.00
2013,10,29,08,44,-1.00
2013,10,29,08,45,-1.00
2013,10,29,08,46,-0.90
2013,10,29,08,47,-0.90
2013,10,29,08,48,-0.90
2013,10,29,08,49,-0.90
2013,10,29,08,50,-0.90
2013,10,29,08,51,-0.90
2013,10,29,08,52,-0.80
2013,10,29,08,53,-0.80
2013,10,29,08,54,-0.80
2013,10,29,08,55,-0.80
2013,10,29,08,56,-0.80
2013,10,29,08,57,-0.70
2013,10,29,08,58,-0.70
2013,10,29,08,59,-0.70
2013,10,29,09,00,-0.70
2013,10,29,09,01,-0.70
2013,10,29,09,02,-0.60
2013,10,29,09,03,-0.60
2013,10,29,09,04,-0.60
2013,10,29,09,05,-0.50
2013,10,29,09,06,-0.50
2013,10,29,09,07,-0.40
2013,10,29,09,08,-0.40
2013,10,29,09,09,-0.40
2013,10,29,09,10,-0.30
2013,10,29,09,11,-0.30
2013,10,29,09,12,-0.30
2013,10,29,09,13,-0.30
2013,10,29,09,14,-0.20
2013,10,29,09,15,-0.20
2013,10,29,09,16,-0.20
2013,10,29,09,17,-0.20
2013,10,29,09,18,-0.10
2013,10,29,09,19,-0.10
2013,10,29,09,20,0.00
2013,10,29,09,21,0.00
2013,10,29,09,22,0.10
2013,10,29,09,23,0.10
2013,10,29,09,24,0.10
2013,10,29,09,25,0.20
2013,10,29,09,26,0.20
2013,10,29,09,27,0.20
2013,10,29,09,28,0.20
2013,10,29,09,29,0.30
2013,10,29,09,30,0.30
2013,10,29,09,31,0.30
2013,10,29,09,32,0.40
2013,10,29,09,33,0.40
2013,10,29,09,34,0.40
2013,10,29,09,35,0.40
2013,10,29,09,36,0.40
2013,10,29,09,37,0.50
2013,10,29,09,38,0.50
2013,10,29,09,39,0.50
2013,10,29,09,40,0.50
2013,10,29,09,41,0.60
2013,10,29,09,42,0.60
2013,10,29,09,43,0.60
2013,10,29,09,44,0.60
2013,10,29,09,45,0.60
2013,10,29,09,46,0.70
2013,10,29,09,47,0.70
2013,10,29,09,48,0.70
2013,10,29,09,49,0.70
2013,10,29,09,50,0.70
2013,10,29,09,51,0.80
2013,10,29,09,52,0.80
2013,10,29,09,53,0.80
2013,10,29,09,54,0.90
2013,10,29,09,55,0.90
2013,10,29,09,56,1.00
2013,10,29,09,57,1.10
2013,10,29,09,58,1.10
2013,10,29,09,59,1.20
2013,10,29,10,00,1.20
2013,10,29,10,01,1.30
2013,10,29,10,02,1.30
2013,10,29,10,03,1.40
2013,10,29,10,04,1.40
2013,10,29,10,05,1.50
2013,10,29,10,06,1.60
2013,10,29,10,07,1.60
2013,10,29,10,08,1.70
2013,10,29,10,09,1.70
2013,10,29,10,10,1.80
2013,10,29,10,11,1.90
2013,10,29,10,12,1.90
2013,10,29,10,13,2.00
2013,10,29,10,14,2.10
2013,10,29,10,15,2.20
2013,10,29,10,16,2.30
2013,10,29,10,17,2.30
2013,10,29,10,18,2.40
2013,10,29,10,19,2.40
2013,10,29,10,20,2.50
2013,10,29,10,21,2.60
2013,10,29,10,22,2.60
2013,10,29,10,23,2.70
2013,10,29,10,24,2.80
2013,10,29,10,25,2.80
2013,10,29,10,26,2.90
2013,10,29,10,27,2.90
2013,10,29,10,28,3.00
2013,10,29,10,29,3.10
2013,10,29,10,30,3.10
2013,10,29,10,31,3.10
2013,10,29,10,32,3.20
2013,10,29,10,33,3.20
2013,10,29,10,34,3.20
2013,10,29,10,35,3.30
2013,10,29,10,36,3.30
2013,10,29,10,37,3.30
2013,10,29,10,38,3.30
2013,10,29,10,39,3.30
2013,10,29,10,40,3.40
2013,10,29,10,41,3.40
2013,10,29,10,42,3.50
2013,10,29,10,43,3.60
2013,10,29,10,44,3.60
2013,10,29,10,45,3.70
2013,10,29,10,46,3.70
2013,10,29,10,47,3.80
2013,10,29,10,48,3.80
2013,10,29,10,49,3.90
2013,10,29,10,50,3.90
2013,10,29,10,51,4.00
2013,10,29,10,52,4.10
2013,10,29,10,53,4.10
2013,10,29,10,54,4.20
2013,10,29,10,55,4.20
2013,10,29,10,56,4.30
2013,10,29,10,57,4.30
2013,10,29,10,58,4.40
2013,10,29,10,59,4.40
2013,10,29,11,00,4.50
2013,10,29,11,01,4.50
2013,10,29,11,02,4.60
2013,10,29,11,03,4.60
2013,10,29,11,04,4.60
2013,10,29,11,05,4.70
2013,10,29,11,06,4.70
2013,10,29,11,07,4.80
2013,10,29,11,08,4.80
2013,10,29,11,09,4.90
2013,10,29,11,10,5.00
2013,10,29,11,11,5.10
2013,10,29,11,12,5.20
2013,10,29,11,13,5.30
2013,10,29,11,14,5.30
2013,10,29,11,15,5.40
2013,10,29,11,16,5.60
2013,10,29,11,17,5.70
2013,10,29,11,18,5.70
2013,10,29,11,19,5.80
2013,10,29,11,20,5.90
2013,10,29,11,21,5.90
2013,10,29,11,22,6.00
2013,10,29,11,23,6.10
2013,10,29,11,24,6.10
2013,10,29,11,25,6.20
2013,10,29,11,26,6.20
2013,10,29,11,27,6.30
2013,10,29,11,28,6.30
2013,10,29,11,29,6.30
2013,10,29,11,30,6.30
2013,10,29,11,31,6.30
2013,10,29,11,32,6.40
2013,10,29,11,33,6.30
2013,10,29,11,34,6.30
2013,10,29,11,35,6.30
2013,10,29,11,36,6.30
2013,10,29,11,37,6.40
2013,10,29,11,38,6.40
2013,10,29,11,39,6.40
2013,10,29,11,40,6.50
2013,10,29,11,41,6.50
2013,10,29,11,42,6.60
2013,10,29,11,43,6.60
2013,10,29,11,44,6.70
2013,10,29,11,45,6.80
2013,10,29,11,46,6.90
2013,10,29,11,47,7.00
2013,10,29,11,48,7.10
2013,10,29,11,49,7.10
2013,10,29,11,50,7.20
2013,10,29,11,51,7.20
2013,10,29,11,52,7.20
2013,10,29,11,53,7.20
2013,10,29,11,54,7.30
2013,10,29,11,55,7.30
2013,10,29,11,56,7.30
2013,10,29,11,57,7.40
2013,10,29,11,58,7.40
2013,10,29,11,59,7.50
2013,10,29,12,00,7.60
2013,10,29,12,01,7.70
2013,10,29,12,02,7.70
2013,10,29,12,03,7.70
2013,10,29,12,04,7.80
2013,10,29,12,05,7.80
2013,10,29,12,06,7.90
2013,10,29,12,07,7.90
2013,10,29,12,08,8.00
2013,10,29,12,09,8.10
2013,10,29,12,10,8.20
2013,10,29,12,11,8.20
2013,10,29,12,12,8.20
2013,10,29,12,13,8.20
2013,10,29,12,14,8.20
2013,10,29,12,15,8.20
2013,10,29,12,16,8.20
2013,10,29,12,17,8.20
2013,10,29,12,18,8.20
2013,10,29,12,19,8.20
2013,10,29,12,20,8.20
2013,10,29,12,21,8.30
2013,10,29,12,22,8.30
2013,10,29,12,23,8.30
2013,10,29,12,24,8.40
2013,10,29,12,25,8.50
2013,10,29,12,26,8.60
2013,10,29,12,27,8.60
2013,10,29,12,28,8.70
2013,10,29,12,29,8.70
2013,10,29,12,30,8.70
2013,10,29,12,31,8.70
2013,10,29,12,32,8.80
2013,10,29,12,33,8.80
2013,10,29,12,34,8.80
2013,10,29,12,35,8.80
2013,10,29,12,36,8.80
2013,10,29,12,37,8.80
2013,10,29,12,38,8.80
2013,10,29,12,39,8.70
2013,10,29,12,40,8.70
2013,10,29,12,41,8.80
2013,10,29,12,42,8.80
2013,10,29,12,43,8.80
2013,10,29,12,44,8.80
2013,10,29,12,45,8.80
2013,10,29,12,46,8.80
2013,10,29,12,47,8.90
2013,10,29,12,48,8.90
2013,10,29,12,49,9.00
2013,10,29,12,50,9.00
2013,10,29,12,51,9.10
2013,10,29,12,52,9.10
2013,10,29,12,53,9.10
2013,10,29,12,54,9.20
2013,10,29,12,55,9.20
2013,10,29,12,56,9.20
2013,10,29,12,57,9.30
2013,10,29,12,58,9.40
2013,10,29,12,59,9.50
2013,10,29,13,00,9.60
2013,10,29,13,01,9.80
2013,10,29,13,02,9.80
2013,10,29,13,03,9.90
2013,10,29,13,04,9.90
2013,10,29,13,05,10.10
2013,10,29,13,06,10.10
2013,10,29,13,07,10.20
2013,10,29,13,08,10.20
2013,10,29,13,09,10.30
2013,10,29,13,10,10.30
2013,10,29,13,11,10.40
2013,10,29,13,12,10.40
2013,10,29,13,13,10.40
2013,10,29,13,14,10.40
2013,10,29,13,15,10.40
2013,10,29,13,16,10.50
2013,10,29,13,17,10.50
2013,10,29,13,18,10.50
2013,10,29,13,19,10.40
2013,10,29,13,20,10.40
2013,10,29,13,21,10.40
2013,10,29,13,22,10.40
2013,10,29,13,23,10.40
2013,10,29,13,24,10.40
2013,10,29,13,25,10.50
2013,10,29,13,26,10.50
2013,10,29,13,27,10.50
2013,10,29,13,28,10.60
2013,10,29,13,29,10.60
2013,10,29,13,30,10.60
2013,10,29,13,31,10.60
2013,10,29,13,32,10.60
2013,10,29,13,33,10.60
2013,10,29,13,34,10.70
2013,10,29,13,35,10.70
2013,10,29,13,36,10.80
2013,10,29,13,37,10.80
2013,10,29,13,38,10.90
2013,10,29,13,39,11.00
2013,10,29,13,40,11.10
2013,10,29,13,41,11.10
2013,10,29,13,42,11.20
2013,10,29,13,43,11.20
2013,10,29,13,44,11.20
2013,10,29,13,45,11.20
2013,10,29,13,46,11.30
2013,10,29,13,47,11.30
2013,10,29,13,48,11.30
2013,10,29,13,49,11.30
2013,10,29,13,50,11.40
2013,10,29,13,51,11.40
2013,10,29,13,52,11.50
2013,10,29,13,53,11.50
2013,10,29,13,54,11.60
2013,10,29,13,55,11.60
2013,10,29,13,56,11.70
2013,10,29,13,57,11.80
2013,10,29,13,58,11.80
2013,10,29,13,59,11.90
2013,10,29,14,00,11.90
2013,10,29,14,01,11.90
2013,10,29,14,02,11.90
2013,10,29,14,03,11.90
2013,10,29,14,04,11.90
2013,10,29,14,05,12.10
2013,10,29,14,06,12.10
2013,10,29,14,07,12.20
2013,10,29,14,08,12.20
2013,10,29,14,09,12.20
2013,10,29,14,10,12.30
2013,10,29,14,11,12.30
2013,10,29,14,13,12.40
2013,10,29,14,14,12.40
2013,10,29,14,15,12.40
2013,10,29,14,16,12.40
2013,10,29,14,17,12.40
2013,10,29,14,18,12.40
2013,10,29,14,19,12.60
2013,10,29,14,20,12.60
2013,10,29,14,21,12.70
2013,10,29,14,22,12.80
2013,10,29,14,23,12.80
2013,10,29,14,24,12.90
2013,10,29,14,25,12.90
2013,10,29,14,26,13.00
2013,10,29,14,27,13.00
2013,10,29,14,28,13.00
2013,10,29,14,29,13.10
2013,10,29,14,30,13.10
2013,10,29,14,31,13.10
2013,10,29,14,32,13.10
2013,10,29,14,33,13.20
2013,10,29,14,34,13.20
2013,10,29,14,35,13.20
2013,10,29,14,36,13.30
2013,10,29,14,37,13.30
2013,10,29,14,38,13.40
2013,10,29,14,39,13.40
2013,10,29,14,40,13.40
2013,10,29,14,41,13.50
2013,10,29,14,42,13.50
2013,10,29,14,43,13.60
2013,10,29,14,44,13.60
2013,10,29,14,45,13.60
2013,10,29,14,46,13.60
2013,10,29,14,47,13.70
2013,10,29,14,48,13.70
2013,10,29,14,49,13.70
2013,10,29,14,50,13.80
2013,10,29,14,51,13.80
2013,10,29,14,52,13.80
2013,10,29,14,53,13.80
2013,10,29,14,54,13.90
2013,10,29,14,55,13.90
2013,10,29,14,56,13.90
2013,10,29,14,57,14.00
2013,10,29,14,58,14.10
2013,10,29,14,59,14.10
2013,10,29,15,00,14.10
2013,10,29,15,01,14.20
2013,10,29,15,02,14.20
2013,10,29,15,03,14.20
2013,10,29,15,04,14.20
2013,10,29,15,05,14.30
2013,10,29,15,06,14.30
2013,10,29,15,07,14.40
2013,10,29,15,08,14.50
2013,10,29,15,09,14.60
2013,10,29,15,10,14.70
2013,10,29,15,11,14.80
2013,10,29,15,12,14.80
2013,10,29,15,13,14.80
2013,10,29,15,14,14.80
2013,10,29,15,15,14.80
2013,10,29,15,16,14.80
2013,10,29,15,17,14.80
2013,10,29,15,18,14.80
2013,10,29,15,19,14.80
2013,10,29,15,20,14.80
2013,10,29,15,21,14.70
2013,10,29,15,22,14.80
2013,10,29,15,23,14.70
2013,10,29,15,24,14.70
2013,10,29,15,25,14.70
2013,10,29,15,26,14.60
2013,10,29,15,27,14.60
2013,10,29,15,28,14.60
2013,10,29,15,29,14.50
2013,10,29,15,30,14.50
2013,10,29,15,31,14.50
2013,10,29,15,32,14.50
2013,10,29,15,33,14.50
2013,10,29,15,34,14.50
2013,10,29,15,35,14.50
2013,10,29,15,36,14.40
2013,10,29,15,37,14.30
2013,10,29,15,38,14.30
2013,10,29,15,39,14.30
2013,10,29,15,40,14.20
2013,10,29,15,41,14.20
2013,10,29,15,42,14.20
2013,10,29,15,43,14.20
2013,10,29,15,44,14.30
2013,10,29,15,45,14.30
2013,10,29,15,46,14.30
2013,10,29,15,47,14.30
2013,10,29,15,48,14.20
2013,10,29,15,49,14.20
2013,10,29,15,50,14.20
2013,10,29,15,51,14.20
2013,10,29,15,52,14.20
2013,10,29,15,53,14.20
2013,10,29,15,54,14.20
2013,10,29,15,55,14.20
2013,10,29,15,56,14.10
2013,10,29,15,57,14.10
2013,10,29,15,58,14.10
2013,10,29,15,59,14.00
2013,10,29,16,00,13.90
2013,10,29,16,01,13.80
2013,10,29,16,02,13.80
2013,10,29,16,03,13.70
2013,10,29,16,04,13.70
2013,10,29,16,05,13.60
2013,10,29,16,06,13.60
2013,10,29,16,07,13.50
2013,10,29,16,08,13.50
2013,10,29,16,09,13.40
2013,10,29,16,10,13.40
2013,10,29,16,11,13.30
2013,10,29,16,12,13.30
2013,10,29,16,13,13.20
2013,10,29,16,14,13.20
2013,10,29,16,15,13.20
2013,10,29,16,16,13.10
2013,10,29,16,17,13.10
2013,10,29,16,18,13.00
2013,10,29,16,19,12.90
2013,10,29,16,20,12.90
2013,10,29,16,21,12.90
2013,10,29,16,22,12.80
2013,10,29,16,23,12.80
2013,10,29,16,24,12.80
2013,10,29,16,25,12.80
2013,10,29,16,26,12.80
2013,10,29,16,27,12.80
2013,10,29,16,28,12.80
2013,10,29,16,29,12.80
2013,10,29,16,30,12.80
2013,10,29,16,31,12.80
2013,10,29,16,32,12.80
2013,10,29,16,33,12.70
2013,10,29,16,34,12.70
2013,10,29,16,35,12.70
2013,10,29,16,36,12.60
2013,10,29,16,37,12.60
2013,10,29,16,38,12.60
2013,10,29,16,39,12.60
2013,10,29,16,40,12.50
2013,10,29,16,41,12.50
2013,10,29,16,42,12.50
2013,10,29,16,43,12.50
2013,10,29,16,44,12.40
2013,10,29,16,45,12.40
2013,10,29,16,46,12.40
2013,10,29,16,47,12.40
2013,10,29,16,48,12.40
2013,10,29,16,49,12.40
2013,10,29,16,50,12.40
2013,10,29,16,51,12.40
2013,10,29,16,52,12.30
2013,10,29,16,53,12.30
2013,10,29,16,54,12.30
2013,10,29,16,55,12.30
2013,10,29,16,56,12.30
2013,10,29,16,57,12.30
2013,10,29,16,58,12.30
2013,10,29,16,59,12.30
2013,10,29,17,00,12.30
2013,10,29,17,01,12.30
2013,10,29,17,02,12.30
2013,10,29,17,03,12.30
2013,10,29,17,04,12.30
2013,10,29,17,05,12.30
2013,10,29,17,06,12.30
2013,10,29,17,07,12.30
2013,10,29,17,08,12.30
2013,10,29,17,09,12.20
2013,10,29,17,10,12.20
2013,10,29,17,11,12.20
2013,10,29,17,12,12.20
2013,10,29,17,13,12.20
2013,10,29,17,14,12.20
2013,10,29,17,15,12.10
2013,10,29,17,16,12.10
2013,10,29,17,17,12.10
2013,10,29,17,18,12.10
2013,10,29,17,19,12.00
2013,10,29,17,20,12.00
2013,10,29,17,21,12.00
2013,10,29,17,22,11.90
2013,10,29,17,23,11.90
2013,10,29,17,24,11.90
2013,10,29,17,25,11.90
2013,10,29,17,26,11.80
2013,10,29,17,27,11.80
2013,10,29,17,28,11.80
2013,10,29,17,29,11.80
2013,10,29,17,30,11.80
2013,10,29,17,31,11.70
2013,10,29,17,32,11.70
2013,10,29,17,33,11.70
2013,10,29,17,34,11.70
2013,10,29,17,35,11.60
2013,10,29,17,36,11.60
2013,10,29,17,37,11.50
2013,10,29,17,38,11.40
2013,10,29,17,39,11.40
2013,10,29,17,40,11.30
2013,10,29,17,41,11.30